Wind_Speed
7 5 4 3 2 2 2 3 4 4 5 5 7 9 11 13 13 13 10 7 5 6 7 8 8 10 11 12 14 15 17 18 15 18 22 20 15 14 15 17 16 15 12 8 7 7 4 3 3 3 3 3 3 3 2 2 1 1 2 1 3 2 3 4 6 6 3 2 3 5 6 4 2 4 8 6 6 10 10 10 10 9 11 14 16 16 17 17
6 6 5 4 4 3 3 3 3 4 5 6 8 9 13 15 15 14 13 11 7 6 6 6 5 5 5 6 7 9 13 15 16 21 23 17 13 13 15 17 18 17 14 9 4 4 4 3 4 4 3 3 2 3 1 1 1 2 3 1 4 4 5 4 5 6 3 2 2 3 4 5 4 6 10 4 3 9 9 9 11 14 16 16 17 17 18 18
7 6 5 5 4 4 4 4 4 5 7 8 9 10 13 14 14 14 14 13 11 9 8 7 6 6 5 1 1 3 6 12 18 22 20 16 14 14 15 18 20 19 17 10 3 3 5 4 4 4 3 1 3 3 2 3 3 1 2 1 5 5 4 5 5 6 5 4 3 0 2 3 4 7 9 5 5 4 4 8 10 14 19 18 19 19 18 17
7 6 6 5 5 6 6 6 7 8 9 10 10 10 11 12 14 13 13 12 12 12 10 10 10 11 8 1 2 2 1 7 18 22 17 16 15 14 17 19 20 19 18 13 6 4 5 6 4 3 2 2 5 3 3 6 4 0 2 3 5 2 2 6 6 6 5 4 4 1 1 2 4 8 9 7 5 4 8 14 11 15 24 23 21 20 18 17
7 6 6 6 6 7 8 9 10 10 11 11 10 9 9 10 12 13 12 10 9 9 9 9 10 14 15 9 3 1 1 2 14 20 14 15 14 12 16 17 19 20 19 15 10 7 6 7 4 3 3 3 6 4 4 7 4 1 2 3 2 1 1 8 6 4 5 5 3 1 1 2 5 6 10 11 6 3 4 10 12 17 25 25 24 22 19 18
8 7 7 7 7 8 9 10 11 11 11 10 10 9 8 9 10 13 12 10 8 6 5 5 7 12 16 16 12 7 7 4 14 19 12 12 12 10 12 14 16 18 17 14 12 9 7 7 5 4 3 3 4 2 4 8 3 2 3 3 3 1 3 9 7 4 6 5 3 1 2 2 5 4 9 13 8 4 6 4 15 22 26 26 24 22 20 20
8 7 7 7 8 9 10 11 10 10 9 10 11 10 10 9 11 13 13 12 9 7 6 4 5 6 9 12 13 17 18 12 18 18 9 10 11 9 9 10 12 14 13 15 16 13 11 9 6 5 4 3 2 1 5 8 3 2 3 4 4 3 4 7 7 6 8 7 5 3 3 2 4 4 5 9 7 5 2 9 23 27 27 26 23 21 19 20
8 8 7 7 8 9 10 10 9 8 9 10 11 11 10 9 11 12 15 16 14 11 9 6 5 4 4 3 6 19 24 18 19 16 8 8 9 8 6 7 11 14 15 17 18 16 15 12 7 5 2 2 1 2 5 5 3 3 2 5 5 4 3 5 6 7 9 8 7 4 3 3 4 4 1 3 4 4 12 23 30 30 27 24 21 20 20 20
8 8 7 7 8 8 9 9 8 8 9 11 11 10 9 8 8 10 15 20 20 19 16 15 11 7 4 2 4 14 19 19 18 15 9 5 7 7 5 8 12 16 17 17 17 17 16 13 8 4 1 2 2 2 4 3 1 1 4 5 4 4 4 4 5 11 10 4 4 4 3 4 2 2 2 6 11 16 24 29 30 29 26 23 22 21 20 21
8 7 7 8 8 8 9 8 7 7 9 9 9 9 8 8 8 10 13 16 17 17 18 19 18 17 13 13 16 12 15 20 17 13 8 5 5 5 4 8 12 15 17 16 15 17 17 14 11 5 2 2 3 3 4 3 2 5 7 4 3 5 3 4 9 16 11 4 5 2 5 6 1 1 1 9 19 24 28 30 28 27 26 24 23 21 21 21
7 6 7 8 8 9 8 8 7 8 8 7 7 7 8 9 10 11 11 11 12 14 15 13 13 19 22 29 28 14 16 20 15 11 9 4 4 4 4 8 12 15 17 16 14 16 16 14 13 7 1 2 3 2 3 5 4 5 7 3 3 8 4 6 12 16 10 5 9 2 5 6 0 2 0 13 23 26 28 31 28 27 28 25 24 23 22 21
7 7 7 8 8 8 8 8 8 9 8 6 7 7 8 9 9 10 11 10 10 11 13 14 13 14 22 34 31 17 17 19 13 10 8 5 4 3 4 8 12 15 15 14 13 14 14 12 12 9 5 2 1 2 2 7 5 2 8 0 5 12 5 7 10 12 9 3 10 5 3 5 1 5 3 18 24 25 28 30 29 29 28 25 25 24 22 21
8 8 8 9 8 8 9 9 9 8 8 8 8 8 9 9 8 8 9 7 7 6 6 10 14 16 22 26 25 20 18 18 12 7 8 7 5 4 6 9 11 13 13 12 13 13 12 10 10 11 13 6 0 1 2 6 5 2 6 3 4 10 3 4 8 10 7 3 11 9 3 4 1 9 5 19 24 26 27 28 30 29 27 26 25 24 22 21
8 9 9 9 9 9 9 8 8 8 9 10 9 9 10 10 10 9 8 6 5 7 7 6 6 13 20 18 18 23 19 16 11 8 12 11 6 4 7 9 10 12 10 11 13 13 10 7 9 14 16 13 3 1 3 6 6 2 4 3 4 5 5 7 9 8 5 2 12 9 3 5 3 10 8 17 24 27 27 25 27 26 26 26 24 23 23 22
9 9 10 9 9 9 8 7 7 7 7 7 8 8 8 9 9 9 11 11 6 6 9 8 6 8 14 13 15 22 20 17 16 13 15 14 10 7 7 9 9 9 8 11 15 12 9 5 9 13 12 14 10 3 3 5 5 4 4 4 3 2 5 10 7 3 3 3 10 7 3 6 4 12 12 15 23 25 27 23 23 25 25 24 22 22 22 22
10 10 10 10 10 9 7 6 6 5 5 6 7 8 8 8 7 7 11 15 12 10 9 9 11 12 11 9 12 22 26 25 22 16 12 13 14 13 10 9 8 7 6 10 12 9 9 6 9 13 12 13 10 4 4 4 4 3 3 3 5 4 5 7 4 1 3 2 7 5 3 6 2 14 14 13 22 24 26 20 22 25 24 22 20 20 20 20
12 11 12 11 10 9 8 9 10 10 10 9 9 8 7 6 3 2 3 8 9 9 11 10 10 12 13 12 14 21 28 26 21 16 13 11 12 16 12 10 10 8 5 7 10 12 13 10 8 8 10 8 4 4 6 5 5 4 3 2 4 4 4 6 5 3 6 4 5 2 3 4 5 13 13 10 22 24 22 19 22 24 22 20 19 19 19 18
12 12 12 11 11 12 15 17 18 18 18 18 16 14 13 11 6 4 3 4 4 3 9 12 7 5 9 19 17 14 21 25 22 18 16 12 10 14 15 13 13 10 6 6 11 17 15 9 6 3 5 6 4 6 6 3 4 5 5 4 5 4 3 6 6 3 7 4 4 3 1 4 7 10 12 9 19 21 19 18 21 21 20 19 18 18 17 18
12 12 13 13 15 17 18 19 21 23 24 21 18 18 19 20 20 21 22 20 16 8 5 13 12 5 2 16 19 10 15 24 25 21 19 17 13 10 13 14 15 16 12 6 10 16 11 6 6 4 5 6 5 3 3 1 4 6 6 4 6 8 5 7 7 4 4 4 4 2 1 3 6 7 10 10 16 20 17 17 18 17 17 16 16 17 16 17
12 13 14 14 15 13 12 13 17 18 15 9 6 7 8 13 17 20 28 32 30 20 12 13 14 8 3 12 20 14 13 20 27 27 23 23 16 10 13 15 17 20 13 2 4 9 7 6 5 3 4 6 6 2 3 2 3 5 5 4 6 8 8 6 6 5 2 3 4 2 4 4 5 5 7 10 15 17 14 14 14 13 14 14 14 14 14 15
12 12 12 12 10 8 7 8 9 6 3 2 3 3 2 4 7 8 17 25 24 22 21 20 16 13 9 11 20 19 16 20 26 29 26 24 18 10 13 14 11 12 9 4 2 3 6 7 3 5 5 5 3 1 1 2 2 2 4 6 6 6 8 9 6 4 3 4 4 3 6 5 4 4 5 8 9 10 11 11 11 11 12 12 13 13 13 13
11 11 11 11 10 10 8 7 6 4 3 4 5 8 9 10 11 12 14 15 15 18 19 22 21 19 15 12 16 18 22 24 24 30 30 25 19 10 9 10 6 3 7 5 2 3 6 5 5 5 3 2 1 3 3 4 4 3 3 5 6 5 8 9 4 2 2 3 5 2 6 2 2 3 4 6 6 8 11 12 10 10 10 11 12 14 12 13
9 9 10 10 10 10 8 7 7 6 6 5 5 8 12 12 12 14 14 11 11 14 15 20 24 23 21 16 14 15 21 20 18 29 34 26 19 10 7 7 4 2 6 5 4 4 4 3 4 1 2 2 2 4 5 6 5 4 5 5 6 6 6 6 5 5 4 3 3 3 5 1 1 2 3 3 6 9 11 13 13 12 10 9 10 11 12 13
7 6 7 8 9 8 7 7 6 6 7 6 5 6 7 7 8 9 9 7 6 10 14 15 20 23 21 19 16 10 15 17 17 27 31 25 18 8 5 6 4 4 6 3 5 5 2 2 3 2 5 6 4 7 7 7 6 5 5 4 7 8 5 6 10 12 8 3 0 3 2 1 3 3 2 3 5 7 8 11 13 13 12 8 6 7 10 12
5 4 4 5 5 5 5 5 4 5 6 6 5 4 3 4 5 3 4 4 2 8 12 11 14 20 20 21 18 4 6 15 18 24 28 24 17 7 4 6 5 6 7 3 4 4 2 3 3 3 6 7 6 6 6 5 6 7 5 5 6 8 8 11 13 10 7 4 0 2 4 3 3 5 5 4 3 3 5 8 11 12 11 8 5 7 9 12
3 3 3 2 2 1 2 2 4 4 5 5 2 1 2 4 4 1 2 4 3 7 10 9 9 16 18 21 21 5 3 9 12 21 28 23 16 8 4 6 4 4 6 2 2 1 2 4 4 5 4 6 7 6 5 4 5 7 3 1 4 8 10 14 13 7 4 4 4 1 2 4 2 5 8 6 4 4 3 4 7 10 10 9 8 9 10 14
2 2 2 2 2 2 2 2 3 3 3 3 2 0 3 4 3 2 1 5 5 4 7 9 7 12 15 17 21 8 2 10 9 17 29 24 15 8 6 7 3 3 4 2 3 2 3 7 7 6 5 6 6 6 5 3 4 7 4 3 8 11 12 14 11 5 2 4 6 1 1 4 3 4 7 8 5 4 2 1 4 7 8 10 12 13 12 16
1 1 2 2 3 4 5 5 5 4 4 2 2 0 2 2 3 3 4 4 4 4 4 7 5 10 13 12 18 12 2 11 8 12 26 26 17 8 6 7 2 4 5 4 4 4 1 5 6 5 5 5 3 5 6 2 2 7 7 7 8 9 10 11 7 5 3 2 5 4 1 3 5 2 2 6 5 4 3 1 3 4 6 11 15 16 14 17
2 2 3 4 5 6 7 7 7 5 4 2 1 0 2 4 3 2 6 3 3 3 3 6 6 11 16 10 13 14 8 10 9 11 21 26 22 11 3 5 4 2 2 5 2 4 2 2 2 1 3 2 4 8 6 1 4 9 9 9 9 6 5 4 2 4 4 3 4 7 3 2 6 2 3 3 4 3 2 2 2 3 7 10 15 18 17 18
4 5 6 7 8 8 9 8 7 6 4 1 1 3 5 5 4 5 4 0 2 4 4 7 5 10 16 9 8 14 9 7 12 15 19 25 29 22 6 5 10 3 0 4 2 5 6 2 2 1 2 2 5 8 5 3 6 9 8 9 9 5 1 1 2 2 5 4 5 7 4 4 6 2 3 1 0 3 4 3 3 5 10 12 15 18 17 18
6 7 7 8 8 9 9 8 6 5 3 2 3 4 5 3 4 6 2 2 2 5 5 5 4 6 10 5 4 11 7 6 14 15 14 16 21 22 11 5 9 5 3 6 4 7 8 2 0 1 2 4 4 5 4 4 4 5 5 8 10 7 3 3 4 4 4 5 5 5 5 3 5 3 3 3 4 7 6 4 4 6 12 14 14 17 18 19
5 6 6 6 5 5 5 5 4 3 3 3 5 4 3 3 5 3 1 4 3 3 3 2 4 4 5 3 3 7 4 5 11 9 6 6 7 11 10 5 6 5 5 6 4 8 5 0 4 3 1 7 7 5 6 4 5 7 6 8 7 6 5 5 6 4 2 5 5 7 7 4 6 1 5 6 5 5 4 3 4 7 12 14 14 18 20 23
5 5 4 4 2 1 0 3 3 3 4 5 5 3 5 6 2 2 2 3 1 2 2 2 4 3 3 4 4 5 3 3 7 7 3 3 5 5 7 7 6 4 2 4 4 7 5 4 6 3 2 8 9 6 6 5 6 6 5 5 4 5 8 8 8 6 5 7 10 9 5 4 6 1 5 7 6 5 1 5 6 8 12 13 15 21 27 32
7 7 6 4 3 4 4 4 4 4 4 5 4 4 8 5 1 1 2 3 1 3 2 1 4 4 2 3 3 4 3 2 5 6 5 4 5 4 5 7 8 4 1 2 3 3 3 5 4 3 4 7 8 4 2 4 4 3 2 2 3 4 6 6 7 7 8 9 10 8 2 4 5 1 5 9 9 4 3 8 7 8 13 15 18 26 35 40
9 7 5 5 6 5 6 4 3 4 4 5 5 7 6 2 3 1 2 4 2 3 3 2 3 4 3 3 3 2 2 2 3 4 5 4 3 3 3 4 6 4 1 2 2 1 0 5 5 3 4 2 6 6 1 1 3 2 1 3 3 5 3 4 6 7 9 10 7 4 2 4 2 1 6 9 6 3 8 10 11 14 18 21 25 33 40 43
9 8 6 7 6 5 5 3 3 4 4 6 7 6 3 3 3 2 1 2 1 1 3 4 4 5 4 4 4 4 2 1 2 4 3 2 1 2 2 2 3 4 2 2 1 1 1 5 6 7 5 2 6 9 3 3 4 2 3 4 6 5 1 1 6 7 9 9 6 2 4 4 2 1 3 2 3 9 10 13 18 22 24 28 31 36 42 47
7 9 11 11 9 8 6 4 4 4 5 7 8 3 3 2 2 3 0 1 1 1 3 2 1 2 3 3 4 6 4 2 2 4 2 1 1 1 2 1 1 3 2 1 1 0 1 6 6 4 3 3 8 8 1 4 4 3 3 6 5 2 2 2 4 6 7 8 6 4 9 10 5 2 1 2 7 10 11 16 21 22 25 28 32 39 46 47
5 8 11 13 12 9 7 8 8 6 8 10 6 2 2 0 1 2 1 0 1 1 5 2 1 1 0 1 3 5 5 4 3 4 2 2 2 1 2 2 0 3 4 1 1 0 1 4 6 1 2 8 10 7 2 3 4 4 3 5 3 5 5 3 2 4 6 10 9 9 12 7 4 4 3 3 9 13 17 18 15 16 22 28 36 45 47 42
3 4 9 12 11 11 8 7 7 7 10 8 3 2 1 1 1 1 1 1 1 2 3 1 1 2 1 2 2 4 3 3 2 3 2 2 3 1 3 1 1 4 5 2 2 1 1 1 4 2 2 6 6 4 3 5 2 3 4 4 3 2 2 1 1 1 3 8 10 13 12 5 3 4 3 7 13 18 20 15 11 18 28 36 42 44 41 41
2 1 8 10 8 12 10 6 7 9 8 4 3 2 1 1 1 0 0 1 1 1 1 2 2 2 1 1 1 1 2 1 1 2 1 1 3 1 3 1 2 4 4 2 2 1 1 1 4 5 3 3 3 2 3 3 3 5 5 5 5 2 2 3 2 1 1 4 8 11 10 7 5 1 2 11 16 18 18 12 14 25 35 42 44 39 38 44
2 2 7 9 6 7 8 9 10 9 6 2 2 2 1 2 2 1 1 0 0 1 1 3 3 1 0 1 1 1 1 2 1 1 0 1 1 1 2 2 1 3 3 2 2 1 0 1 3 6 5 4 4 3 2 1 2 3 4 4 3 2 4 6 6 1 3 1 6 6 9 10 6 0 3 12 15 15 17 19 23 31 39 43 39 37 42 43
4 3 6 9 8 5 8 10 9 6 4 4 3 3 1 2 2 1 1 0 0 1 2 3 2 1 2 0 0 1 0 1 0 1 0 1 1 2 1 3 3 3 2 1 2 2 2 2 1 5 5 7 8 4 2 1 3 3 2 3 2 2 3 2 5 6 2 3 7 6 9 9 4 2 8 16 17 17 24 30 31 35 41 40 37 42 45 37
9 6 4 7 8 8 10 7 7 5 4 3 3 4 3 2 2 1 0 1 1 0 2 2 0 1 1 1 1 1 0 1 1 0 1 2 2 2 1 3 4 2 2 1 2 1 1 2 3 5 5 5 5 3 2 1 4 4 2 3 3 2 1 4 5 4 3 3 6 6 8 8 4 7 15 22 21 22 31 37 36 38 38 35 41 48 40 30
15 13 11 7 3 4 6 5 2 2 2 2 4 4 3 3 3 2 0 2 2 0 1 1 0 1 1 1 2 1 0 1 1 0 1 1 2 1 1 2 3 3 3 1 2 4 3 1 4 6 8 7 6 4 3 3 4 3 2 3 4 4 4 2 2 2 1 4 7 8 9 10 9 12 17 18 16 21 31 37 38 36 34 38 46 43 32 28
9 11 15 13 5 4 7 8 9 6 2 3 4 3 2 3 4 3 2 1 2 2 2 1 1 1 1 1 2 1 1 2 1 1 2 1 2 1 1 1 2 3 3 2 1 3 1 0 2 2 5 8 8 7 9 9 7 4 3 5 5 4 6 5 3 4 4 7 9 8 10 15 17 16 15 12 14 20 28 34 37 33 35 44 44 33 28 30
3 3 7 13 13 14 14 12 13 9 5 4 4 1 1 1 1 2 2 2 2 3 3 2 1 1 2 3 2 2 1 2 1 1 1 1 3 2 1 0 2 3 3 2 3 3 2 0 2 4 5 6 8 10 12 10 8 9 9 6 3 2 4 3 4 4 6 10 10 8 12 19 21 18 14 14 17 19 22 30 34 33 41 47 37 27 28 33
4 2 1 4 9 13 14 10 10 9 6 4 3 1 1 1 1 2 1 1 2 1 2 3 2 1 2 2 2 1 3 2 2 1 0 2 4 3 2 2 1 2 2 3 4 3 3 2 3 5 7 9 10 13 15 11 7 10 10 5 2 5 5 4 5 7 8 9 10 13 17 19 19 17 15 17 19 17 20 28 32 37 45 40 29 27 31 39
3 3 4 5 3 4 6 5 8 10 7 4 3 1 1 1 0 1 1 0 1 1 1 2 4 3 1 1 2 0 3 4 3 1 0 1 3 4 4 1 2 2 1 2 4 4 4 3 4 3 6 10 11 13 13 8 6 6 5 3 3 6 7 6 7 9 9 8 12 20 22 18 16 16 15 18 21 21 26 33 36 42 42 31 27 30 34 42
9 9 7 6 5 6 7 6 10 13 8 3 3 2 2 3 3 2 1 1 1 2 1 1 3 3 2 3 3 2 1 2 3 3 1 0 3 2 3 1 1 2 1 2 3 4 3 3 3 1 8 11 11 11 8 6 7 4 1 2 4 5 7 8 9 10 12 13 16 20 20 16 14 14 17 23 29 31 34 37 40 42 35 26 28 34 37 41
11 9 8 13 12 9 8 6 7 8 5 3 3 1 2 5 4 3 1 1 1 2 2 1 2 1 2 3 4 1 3 4 3 4 3 1 2 0 1 1 1 3 4 2 1 3 2 3 1 2 6 10 8 7 5 7 10 7 2 3 6 9 10 9 10 11 13 15 15 15 15 14 12 16 24 30 34 34 33 36 41 38 28 26 32 37 38 38
8 9 16 19 11 5 3 3 3 4 3 2 2 3 2 3 5 4 2 1 1 1 0 1 2 1 2 2 2 2 3 3 5 6 5 3 3 3 2 1 1 2 4 2 1 2 2 2 3 4 4 8 5 6 12 14 9 4 3 5 7 9 11 10 10 13 14 15 14 12 10 10 12 20 28 30 32 31 28 34 38 30 25 32 40 39 36 35
12 16 17 14 6 3 2 2 3 4 2 0 2 4 2 3 6 6 3 1 0 2 1 1 3 2 2 0 2 3 3 2 3 4 4 4 5 5 5 5 3 2 1 2 1 1 2 1 3 3 4 9 8 10 13 13 7 3 2 3 5 9 11 12 14 16 12 8 7 7 8 11 17 21 22 23 27 26 27 36 34 23 28 39 41 35 32 34
Wind_Direction
152 158 150 153 152 123 82 59 54 44 51 60 54 59 71 71 66 62 61 66 91 107 112 108 93 84 80 75 70 64 57 47 45 51 44 32 17 9 5 1 2 357 349 340 344 348 325 286 284 286 263 254 280 289 302 300 200 156 94 100 263 211 201 198 187 197 174 254 259 190 195 173 168 159 140 114 99 109 101 98 107 118 123 130 133 138 143 143
140 137 133 127 116 99 81 78 78 71 75 67 63 78 84 77 68 62 59 58 70 95 109 111 93 70 59 68 70 67 56 41 44 48 37 24 16 13 8 7 7 2 357 344 329 353 344 312 292 292 274 253 292 314 326 337 25 101 108 124 238 210 213 209 192 200 194 270 254 177 200 198 206 176 162 165 127 126 104 94 112 120 120 129 136 138 142 142
123 120 116 109 104 94 96 100 99 92 83 73 76 91 89 76 65 62 58 56 62 77 92 93 72 37 19 42 106 74 48 29 32 31 24 19 19 17 15 13 9 6 6 359 332 350 360 345 312 305 289 273 338 330 14 10 356 79 98 286 248 223 242 265 247 230 241 294 327 169 198 207 211 179 178 183 160 164 160 150 137 133 133 134 138 139 141 140
118 116 109 103 99 99 106 105 102 95 84 77 83 98 94 76 67 64 59 60 67 74 81 78 60 37 32 39 206 202 352 23 21 14 11 16 19 18 20 17 13 13 12 14 20 5 0 1 342 333 343 11 5 7 21 8 359 27 143 212 251 237 285 314 295 264 278 301 320 305 211 276 216 189 189 155 138 260 231 202 193 160 150 139 137 136 133 130
116 113 102 99 101 105 109 106 103 95 86 80 84 99 97 76 68 64 59 59 67 75 74 69 64 56 53 56 95 193 278 15 7 8 9 13 17 18 23 23 21 22 20 22 26 17 4 1 3 14 36 35 16 29 20 12 19 291 221 224 279 134 250 340 337 281 289 276 284 202 209 266 195 193 202 179 173 262 270 231 207 165 153 142 135 130 121 114
113 107 99 100 105 110 109 108 104 95 87 81 84 94 93 78 69 66 62 59 65 82 78 70 75 65 58 60 67 70 80 59 358 5 8 8 15 20 27 29 27 28 25 30 32 25 12 4 12 22 40 47 20 35 357 354 6 258 287 335 355 186 252 334 335 287 295 266 255 240 226 203 174 222 222 205 220 284 329 244 173 153 146 140 132 124 113 100
109 103 100 106 111 114 111 111 109 97 87 82 85 88 86 81 74 70 65 66 71 86 91 81 76 57 56 63 59 56 61 38 0 3 6 11 16 19 27 23 20 18 17 31 38 38 33 25 32 39 62 58 10 283 340 341 21 137 282 339 356 309 281 319 322 302 294 266 267 275 226 191 192 240 229 211 240 283 297 151 151 145 139 137 130 122 107 94
106 102 102 112 116 114 113 117 115 98 87 86 87 83 81 80 79 76 71 70 69 75 81 69 58 28 41 66 36 41 39 15 358 2 9 24 16 18 27 6 7 11 14 25 30 34 36 38 37 26 68 76 2 289 340 339 28 85 274 324 336 312 318 332 344 334 308 278 270 259 224 235 224 237 241 180 191 150 141 144 145 142 138 137 129 117 107 100
105 103 106 116 118 113 114 121 117 100 93 93 87 77 73 72 77 83 82 78 75 76 74 66 59 46 62 124 51 39 23 3 357 360 13 32 15 25 24 1 8 14 17 20 21 27 32 37 32 13 138 118 40 330 4 16 354 359 279 309 332 324 353 13 25 11 351 316 276 252 260 275 244 295 12 114 136 138 140 143 142 141 136 129 121 113 111 107
106 106 111 116 116 113 114 118 115 103 101 95 78 67 69 74 83 93 92 87 80 74 67 66 61 59 72 76 69 52 11 6 3 3 19 26 14 25 13 5 13 15 15 13 16 23 27 30 24 23 138 94 33 352 20 43 280 311 306 277 344 355 17 44 24 16 21 35 359 275 267 293 226 341 336 125 135 142 140 139 140 139 128 119 118 112 109 101
106 108 113 116 116 113 113 116 111 106 104 91 70 69 79 86 87 87 90 88 80 68 59 61 58 54 56 58 61 45 8 12 10 15 26 18 360 357 2 10 11 11 11 12 18 21 23 26 21 27 80 327 357 15 48 18 311 317 347 241 309 358 20 29 13 9 21 32 5 304 254 310 233 16 91 141 143 150 143 140 141 135 125 121 119 109 103 94
103 106 113 117 116 114 113 113 110 105 98 86 80 79 85 94 90 79 80 82 75 65 56 54 56 50 49 52 51 34 17 21 23 27 23 8 354 334 360 8 4 6 7 15 24 19 20 22 17 28 36 321 308 49 33 0 335 313 24 142 309 360 13 18 11 356 3 30 5 353 287 331 355 14 105 153 151 154 145 141 141 132 127 123 115 106 96 87
101 106 113 116 115 114 114 114 109 103 96 92 90 81 81 88 87 77 72 71 60 48 45 57 59 51 53 55 44 34 30 27 38 50 31 20 6 346 353 353 352 359 6 19 22 13 17 19 15 37 43 30 257 33 320 349 359 310 22 64 346 2 343 360 8 345 359 65 7 6 324 315 118 32 74 165 159 154 145 139 140 131 126 119 109 100 88 78
103 109 113 112 112 114 112 112 108 109 105 91 83 81 83 83 83 80 63 51 51 49 43 63 67 46 55 62 40 35 35 31 42 51 38 36 28 7 352 346 346 356 7 17 14 10 14 13 18 37 39 24 2 281 330 360 20 342 357 45 36 8 285 323 348 342 7 5 354 9 304 283 196 22 22 177 169 155 144 138 140 130 122 115 103 94 83 72
108 110 110 108 110 111 110 113 114 120 109 79 74 79 81 82 86 87 63 50 65 75 55 61 79 56 57 60 36 31 35 36 36 30 27 29 30 23 358 349 346 357 13 15 13 10 2 356 28 35 27 19 27 37 1 357 12 31 9 345 354 7 292 319 337 8 48 299 343 19 301 278 212 355 360 181 175 154 144 138 136 125 119 113 98 91 80 71
109 108 108 109 110 112 112 113 115 119 103 85 86 80 77 80 91 105 70 56 72 80 68 73 72 65 57 41 27 28 32 32 29 24 14 14 22 21 8 357 354 354 0 12 16 13 5 20 52 44 30 25 35 44 32 12 348 16 35 318 300 321 310 322 329 55 61 299 341 29 273 279 265 344 349 184 175 150 140 130 125 122 117 109 95 89 78 69
108 109 111 112 113 112 106 102 101 100 94 90 86 76 74 69 76 158 56 59 83 71 60 76 78 69 55 30 22 24 27 28 26 26 20 11 17 20 16 7 6 356 334 353 8 14 21 40 62 43 32 34 36 47 47 16 333 332 13 322 273 283 292 313 307 316 27 6 325 3 229 285 323 346 1 163 164 141 130 122 122 121 113 104 93 84 74 65
105 109 114 114 115 109 105 104 100 97 93 90 87 84 83 78 80 97 83 93 109 58 45 46 51 89 45 21 16 13 24 29 25 29 30 20 14 19 19 16 16 10 359 8 13 17 23 38 65 55 28 29 19 43 50 348 299 294 317 317 293 285 248 279 286 311 23 2 294 333 304 327 343 357 28 113 144 128 118 119 122 119 110 100 89 81 72 62
103 108 115 117 116 109 104 103 102 102 100 95 89 86 86 82 79 76 74 75 70 70 47 31 40 107 48 12 15 14 25 28 26 28 26 21 16 13 20 26 30 30 31 24 11 18 22 28 49 43 9 359 350 51 98 267 257 266 282 280 293 301 277 261 265 276 1 326 291 358 359 348 359 6 35 81 120 115 110 116 119 119 110 99 87 78 68 61
106 109 117 121 120 109 100 105 108 109 103 90 68 69 89 79 70 65 65 68 69 73 73 56 57 80 83 15 20 24 26 27 28 27 22 15 12 10 19 21 27 34 34 351 333 10 36 47 40 360 312 307 307 245 185 253 250 265 287 278 281 292 293 282 267 271 355 331 280 141 99 35 21 10 37 80 104 102 101 107 111 118 113 100 88 74 64 56
112 111 117 121 123 111 105 116 116 110 77 37 35 53 114 82 76 80 71 71 70 68 62 57 56 54 46 19 19 22 21 26 28 27 21 12 12 17 17 16 28 30 5 310 270 347 48 57 2 294 269 265 294 232 169 316 301 296 297 298 305 292 290 291 274 280 36 16 298 135 88 42 32 15 44 84 92 89 95 101 103 113 114 103 86 68 58 41
116 112 113 114 117 112 111 117 103 88 74 84 98 94 100 100 103 102 91 85 69 59 51 45 44 41 35 24 19 19 21 24 19 17 16 12 20 28 17 26 53 19 338 349 14 357 44 46 317 292 252 179 78 67 60 8 350 329 310 311 316 308 301 296 264 230 58 357 304 101 91 51 42 37 48 72 85 97 98 96 94 97 104 106 82 56 41 21
121 114 110 106 109 108 105 104 86 76 84 99 116 109 104 103 103 96 90 98 75 49 39 36 34 30 27 22 12 19 33 33 10 5 8 8 17 29 33 33 41 4 352 21 57 45 47 4 312 316 75 90 19 9 24 10 0 333 329 328 308 316 328 312 301 304 305 286 279 97 99 119 90 65 55 73 107 111 102 94 87 78 79 95 77 38 18 9
129 119 113 104 104 104 92 84 72 69 79 97 124 125 116 112 114 103 81 96 91 37 31 31 26 23 22 13 3 19 48 43 18 5 4 4 9 19 38 24 19 13 354 24 83 83 85 308 309 31 42 46 11 359 13 6 353 327 308 285 288 312 314 287 299 309 315 312 165 84 55 228 183 160 144 147 135 119 111 101 87 76 74 79 66 17 360 2
137 131 132 120 109 100 80 65 54 66 66 76 125 145 140 143 140 118 51 84 78 9 18 19 18 17 11 7 6 15 69 42 25 7 2 6 9 9 24 20 28 7 341 4 78 69 36 326 343 14 21 41 34 3 9 6 346 327 288 239 273 310 306 293 302 316 332 331 257 65 343 292 180 185 199 188 173 156 129 106 91 80 71 60 33 358 348 352
139 151 159 160 151 97 53 35 33 51 55 58 95 163 185 191 178 212 19 73 25 340 2 5 7 9 5 6 4 6 114 22 12 9 10 11 6 9 17 3 31 17 335 341 59 42 344 356 43 60 35 39 33 6 4 23 355 326 293 189 306 313 305 299 307 323 331 299 278 115 297 275 224 208 207 188 188 185 147 109 96 80 57 35 9 347 334 339
132 159 193 237 237 272 300 299 348 19 32 30 9 106 187 201 192 221 12 48 9 330 358 1 359 3 7 10 11 42 142 333 344 13 16 15 6 21 39 2 11 7 330 354 19 329 329 356 19 42 38 43 34 358 341 18 3 314 306 11 331 313 302 298 308 310 260 291 299 302 173 254 266 240 199 169 182 196 158 90 86 72 34 10 353 341 327 327
157 203 252 275 267 276 284 283 286 313 346 345 345 114 184 179 177 176 89 72 347 336 356 353 355 2 9 18 28 60 80 346 1 6 15 24 17 22 53 26 340 288 332 42 12 314 317 5 359 14 24 31 16 323 316 359 340 290 302 328 306 288 282 285 302 302 289 338 307 306 27 273 278 305 129 149 185 204 169 94 61 50 7 353 342 335 323 317
268 270 276 271 263 274 278 280 277 279 308 318 339 115 153 130 144 106 79 105 321 347 345 349 352 349 357 12 30 37 32 24 24 353 14 32 29 30 70 19 11 272 342 53 23 311 313 305 295 67 46 8 319 307 308 331 300 297 312 321 302 281 272 281 326 316 336 42 305 308 8 332 296 314 111 160 220 211 141 75 35 347 329 330 331 328 320 316
280 273 276 271 264 270 270 270 269 264 278 283 178 135 128 113 95 67 53 205 324 342 324 353 352 338 354 5 12 12 17 23 9 3 18 30 33 39 57 356 13 52 38 18 13 304 316 276 201 97 50 317 281 291 292 246 293 320 332 331 325 323 339 37 41 18 4 360 300 306 5 18 315 301 126 149 175 107 84 31 330 311 311 308 319 325 321 319
290 285 279 280 272 269 266 260 257 248 244 194 167 144 125 79 65 89 82 268 308 342 341 2 349 348 12 33 358 354 357 359 4 16 19 17 29 32 35 6 2 24 16 2 353 326 341 58 114 337 29 348 293 288 304 250 290 344 352 345 341 339 11 358 357 51 15 306 289 315 351 343 289 297 83 100 83 89 81 14 303 296 310 303 311 325 324 322
314 308 295 297 286 274 263 240 226 209 196 156 149 156 130 40 29 93 265 313 325 345 357 334 330 355 8 20 1 337 335 351 3 26 24 8 32 29 34 32 350 8 13 355 344 339 344 196 316 306 56 12 358 345 348 337 348 3 2 3 354 340 350 333 328 1 314 277 303 338 347 309 271 290 110 131 107 105 115 358 292 284 307 303 309 325 326 325
356 350 342 336 337 344 91 169 158 144 158 147 144 133 84 75 41 237 276 328 348 345 348 270 314 338 336 359 357 331 349 354 354 13 12 25 51 33 33 32 13 29 5 334 344 348 334 297 340 4 356 13 26 9 344 334 347 355 347 8 31 350 334 321 318 321 297 289 306 323 330 288 282 282 136 147 136 138 140 338 303 282 304 303 307 324 329 330
26 19 14 24 64 72 86 113 119 118 129 134 133 74 63 80 209 232 280 280 287 340 356 282 316 336 26 35 342 329 14 354 352 17 6 19 43 18 11 13 17 49 141 3 5 2 349 310 339 35 328 349 21 16 292 289 312 312 286 100 72 347 314 304 309 309 310 306 306 323 317 255 290 293 153 152 150 144 347 339 327 312 318 317 317 328 333 332
41 33 38 66 73 74 78 84 97 103 126 127 85 61 77 146 230 181 238 259 298 323 312 346 7 10 4 339 329 9 60 326 347 42 21 24 47 6 358 343 358 27 90 31 338 249 349 271 271 338 312 334 11 346 302 335 311 262 131 81 3 317 275 275 295 295 307 306 300 321 256 226 272 162 156 158 161 8 350 344 343 336 335 335 332 332 334 332
51 51 62 70 67 69 66 68 111 103 130 124 72 55 135 190 210 169 208 279 348 314 312 342 31 35 340 312 332 6 53 293 335 29 28 56 70 359 5 295 338 20 66 84 339 329 351 273 283 339 330 121 15 339 343 36 341 324 30 347 302 296 181 255 306 306 312 309 297 304 303 304 326 166 163 184 299 336 342 343 345 342 341 339 335 334 333 330
58 58 61 63 62 63 62 73 111 122 124 102 77 86 200 203 170 178 329 351 246 104 73 27 17 20 331 309 317 327 347 343 348 17 18 32 28 25 16 323 353 26 26 159 242 216 226 284 299 2 319 300 344 339 23 60 29 52 4 315 296 319 104 100 326 311 311 308 299 310 317 317 321 324 354 306 309 323 335 343 345 343 340 336 333 333 331 330
57 55 53 51 53 58 75 85 92 122 115 87 74 123 171 205 194 220 297 27 250 61 77 99 263 25 352 261 298 310 344 358 356 17 19 347 354 103 61 343 103 21 353 170 171 202 163 295 306 75 255 301 337 358 359 12 60 83 343 327 7 353 351 35 341 298 314 313 305 310 313 307 310 327 357 325 319 332 341 344 344 339 336 334 333 332 329 332
3 35 36 32 44 58 72 98 106 113 100 81 83 149 136 203 222 251 256 286 275 82 78 165 236 32 119 181 266 307 349 9 351 3 35 10 341 93 86 359 284 1 355 136 148 273 145 295 294 300 300 311 342 16 330 323 13 51 360 355 29 352 295 155 185 232 324 311 305 314 316 318 321 321 359 340 335 344 343 341 341 336 335 335 332 329 330 335
286 48 27 17 41 56 63 107 109 86 82 92 158 149 77 178 152 57 285 282 252 101 78 195 157 21 323 208 252 309 3 39 6 356 35 18 336 8 69 63 279 333 345 109 113 341 17 170 265 291 329 347 347 322 310 327 346 1 3 355 357 356 245 273 296 127 112 303 310 315 309 315 335 317 350 343 345 346 343 340 337 334 334 332 328 328 334 336
104 74 20 22 52 61 78 96 71 61 78 96 116 107 27 148 143 79 53 62 120 79 131 162 139 117 169 15 8 239 344 6 37 44 334 339 353 327 12 76 300 326 359 47 45 35 74 169 258 299 336 343 313 290 277 125 92 23 2 356 2 16 352 335 321 330 112 300 301 299 290 304 332 55 336 347 347 345 345 342 334 330 330 328 327 333 337 336
87 74 18 38 63 87 105 83 37 33 92 81 77 99 110 129 116 79 74 67 319 44 94 123 112 111 148 164 304 185 280 335 24 65 228 252 232 237 308 25 357 335 49 17 287 228 162 122 257 279 286 284 291 328 20 115 95 71 48 51 63 65 51 20 295 311 351 284 280 280 284 297 328 14 347 348 344 344 346 340 330 327 327 326 331 337 337 338
75 70 33 52 75 95 103 75 14 22 73 78 92 90 90 117 92 71 62 15 340 290 62 74 55 68 151 213 141 149 214 206 210 211 195 244 268 237 239 12 358 355 56 359 302 306 124 79 343 298 272 263 284 360 23 359 30 19 5 51 60 66 107 191 233 306 327 284 296 294 284 294 328 352 344 342 342 345 341 335 329 325 325 331 336 336 337 344
77 62 48 52 82 110 104 108 114 79 80 105 91 65 59 81 61 39 334 359 3 90 88 82 103 70 156 152 104 155 245 63 214 302 76 203 254 262 192 20 8 25 60 90 348 351 328 13 9 335 326 327 335 353 324 311 358 343 309 42 58 54 20 306 250 14 328 278 307 310 297 305 323 339 340 339 344 342 334 332 330 326 328 336 336 335 342 348
83 61 49 53 75 118 109 129 140 134 144 116 83 43 35 58 45 38 56 50 41 75 84 71 145 108 117 100 60 3 7 41 322 335 34 233 259 259 177 34 25 53 85 121 30 7 331 206 70 27 325 321 323 323 318 322 336 325 341 31 42 44 27 353 327 356 325 296 306 306 297 306 318 330 335 341 346 337 331 332 332 330 335 336 334 339 349 347
99 78 42 50 68 84 93 113 123 121 142 128 85 26 38 70 25 27 50 60 50 64 66 55 141 125 54 60 40 341 324 25 26 23 53 267 273 270 208 352 48 77 107 76 27 48 95 218 204 178 210 259 282 289 298 315 320 308 323 360 21 352 19 16 338 325 312 307 307 300 299 308 318 327 336 345 344 335 331 333 333 336 336 333 335 347 350 346
95 77 34 58 66 75 83 95 104 110 136 138 109 167 155 118 320 5 35 63 49 72 83 54 46 63 54 53 58 289 291 351 18 11 138 240 263 296 292 231 100 69 125 78 30 66 93 317 247 196 216 241 263 279 290 306 299 291 313 349 4 326 346 10 337 313 313 314 307 312 317 315 315 326 340 343 339 333 330 332 335 336 333 332 343 350 347 347
106 101 109 123 114 82 81 89 104 105 105 109 118 150 121 90 142 151 177 142 50 50 120 44 22 39 144 166 98 91 318 356 359 294 352 290 294 339 345 239 116 37 113 86 34 83 118 267 249 207 257 261 266 276 283 290 272 273 314 342 330 325 330 335 318 307 314 313 303 313 320 316 315 328 339 338 336 332 328 330 333 333 331 338 352 349 347 348
121 119 104 105 114 110 107 116 118 105 84 72 99 113 132 141 172 211 250 350 8 356 46 133 334 358 170 175 109 85 309 359 338 294 226 300 314 350 359 344 90 7 48 93 36 71 116 257 249 263 293 288 283 279 272 271 286 306 359 288 300 317 320 319 309 304 310 305 301 310 317 315 320 329 329 331 333 330 328 331 332 332 336 349 353 348 347 346
135 138 131 114 98 89 98 115 122 103 62 37 82 117 162 151 173 217 236 107 176 322 22 96 282 319 134 138 116 136 223 188 223 254 194 139 324 280 176 246 211 348 9 66 61 50 62 291 324 56 314 298 288 281 290 303 310 324 335 303 324 334 332 324 314 315 318 310 311 322 321 314 321 327 325 330 333 333 333 334 331 332 343 354 350 345 344 343
149 154 145 126 97 38 66 97 102 98 53 11 107 164 194 184 184 172 113 65 134 164 24 182 200 149 76 88 147 235 256 214 231 245 210 197 255 232 226 241 190 346 356 28 348 13 57 316 346 48 341 300 303 339 328 316 312 329 331 321 336 339 330 324 324 327 326 322 329 339 325 312 324 329 328 331 334 335 337 333 329 334 352 355 348 342 339 340
146 145 144 128 93 16 54 62 46 90 111 285 153 162 192 199 180 149 103 356 126 109 61 192 173 146 71 24 256 281 303 306 277 262 238 234 248 252 262 268 263 264 256 92 23 354 81 8 328 15 330 302 324 341 319 308 323 355 303 275 320 330 324 322 328 330 334 344 346 334 320 319 326 329 330 332 335 338 336 329 327 343 0 354 346 339 336 339
Height
1524 1524 1524 1525 1525 1525 1525 1525 1525 1525 1525 1525 1524 1524 1523 1523 1522 1522 1521 1521 1521 1521 1521 1522 1522 1521 1521 1521 1520 1520 1520 1520 1519 1517 1516 1517 1519 1518 1517 1516 1514 1513 1512 1511 1511 1510 1510 1510 1510 1510 1511 1511 1511 1511 1512 1512 1512 1512 1515 1518 1518 1520 1518 1513 1513 1513 1510 1508 1508 1509 1509 1510 1511 1511 1512 1513 1513 1513 1515 1516 1516 1516 1517 1518 1519 1520 1522 1523
1525 1525 1526 1526 1526 1526 1526 1526 1526 1527 1526 1526 1525 1524 1524 1524 1524 1523 1522 1521 1521 1522 1522 1522 1522 1522 1522 1521 1521 1520 1520 1520 1519 1517 1518 1520 1520 1519 1518 1516 1515 1513 1512 1511 1510 1511 1510 1510 1510 1510 1511 1511 1511 1512 1511 1512 1512 1513 1518 1519 1517 1517 1514 1510 1511 1510 1509 1509 1508 1509 1509 1510 1510 1511 1511 1512 1514 1514 1515 1517 1518 1517 1518 1519 1520 1521 1522 1523
1526 1526 1527 1526 1526 1526 1527 1527 1527 1527 1527 1526 1526 1525 1525 1525 1525 1524 1523 1523 1522 1522 1523 1523 1523 1522 1521 1521 1521 1520 1520 1520 1519 1518 1520 1521 1520 1520 1519 1517 1515 1514 1512 1510 1510 1511 1511 1511 1511 1511 1511 1511 1512 1512 1512 1512 1513 1514 1517 1518 1515 1515 1512 1510 1511 1510 1510 1510 1510 1510 1510 1510 1510 1511 1511 1511 1513 1514 1514 1515 1517 1518 1519 1520 1521 1522 1523 1523
1527 1527 1527 1527 1527 1527 1528 1528 1528 1528 1528 1527 1527 1526 1526 1526 1526 1525 1525 1524 1524 1524 1524 1524 1524 1522 1521 1520 1520 1520 1520 1520 1521 1522 1523 1522 1521 1521 1519 1518 1516 1514 1513 1511 1511 1511 1512 1512 1511 1511 1511 1512 1512 1512 1513 1514 1514 1515 1516 1516 1514 1514 1513 1511 1510 1511 1511 1511 1511 1511 1511 1511 1511 1511 1511 1511 1512 1513 1512 1511 1513 1515 1517 1520 1521 1523 1524 1524
1527 1528 1528 1528 1528 1528 1528 1529 1529 1529 1528 1528 1527 1527 1527 1527 1527 1526 1526 1526 1525 1525 1525 1524 1524 1523 1521 1520 1520 1520 1520 1523 1525 1524 1524 1523 1522 1521 1520 1519 1517 1515 1514 1513 1512 1512 1512 1512 1512 1512 1512 1512 1513 1513 1514 1515 1515 1515 1514 1514 1514 1514 1513 1511 1511 1511 1511 1511 1511 1511 1511 1510 1511 1511 1511 1511 1510 1510 1511 1510 1512 1514 1517 1520 1522 1523 1524 1524
1528 1528 1528 1529 1529 1529 1529 1529 1530 1529 1529 1529 1528 1528 1528 1528 1528 1527 1527 1526 1526 1525 1525 1525 1524 1523 1523 1521 1522 1520 1521 1527 1528 1525 1524 1524 1523 1522 1521 1520 1519 1517 1516 1515 1514 1513 1513 1512 1512 1512 1513 1513 1515 1515 1515 1515 1515 1514 1514 1513 1514 1514 1512 1512 1511 1511 1510 1510 1510 1510 1510 1510 1511 1510 1510 1510 1509 1510 1510 1510 1513 1516 1518 1520 1522 1524 1524 1525
1529 1529 1529 1529 1529 1529 1529 1530 1530 1530 1530 1529 1529 1529 1529 1529 1529 1529 1528 1527 1526 1525 1525 1525 1524 1524 1524 1523 1523 1522 1522 1528 1528 1526 1525 1524 1523 1523 1522 1521 1520 1519 1518 1516 1514 1513 1513 1512 1512 1513 1513 1514 1516 1515 1515 1514 1514 1515 1514 1513 1513 1513 1512 1512 1511 1511 1510 1509 1509 1509 1509 1509 1509 1509 1508 1509 1509 1510 1509 1510 1512 1516 1519 1521 1522 1523 1524 1525
1529 1530 1530 1530 1530 1530 1530 1531 1531 1531 1531 1530 1530 1530 1530 1530 1530 1530 1529 1528 1527 1526 1526 1526 1525 1525 1524 1524 1524 1522 1524 1528 1528 1526 1526 1525 1524 1523 1522 1522 1520 1519 1518 1516 1515 1514 1513 1513 1513 1513 1514 1515 1515 1515 1515 1514 1514 1515 1514 1513 1513 1512 1512 1511 1511 1511 1509 1509 1509 1509 1509 1508 1508 1508 1508 1509 1509 1509 1509 1510 1512 1515 1518 1519 1521 1522 1523 1523
1530 1530 1530 1531 1531 1531 1531 1532 1532 1532 1532 1531 1531 1531 1531 1531 1530 1530 1530 1529 1528 1527 1527 1526 1526 1525 1524 1525 1523 1524 1528 1530 1528 1526 1526 1525 1524 1523 1523 1522 1520 1519 1518 1516 1516 1515 1514 1514 1514 1513 1514 1515 1515 1515 1514 1513 1514 1515 1514 1513 1513 1512 1511 1511 1511 1510 1508 1508 1508 1508 1508 1507 1507 1507 1508 1510 1510 1509 1510 1511 1513 1515 1517 1519 1521 1522 1521 1521
1530 1531 1531 1532 1532 1532 1532 1533 1533 1533 1533 1532 1532 1532 1532 1531 1531 1531 1531 1530 1529 1529 1528 1528 1528 1526 1526 1524 1522 1527 1532 1530 1528 1527 1526 1525 1525 1524 1523 1522 1521 1520 1518 1517 1517 1515 1515 1514 1514 1514 1513 1514 1515 1515 1515 1514 1514 1514 1514 1513 1512 1512 1511 1511 1510 1509 1508 1508 1508 1508 1507 1507 1508 1507 1509 1512 1511 1511 1512 1514 1516 1517 1518 1520 1521 1521 1521 1521
1531 1532 1532 1533 1533 1533 1533 1533 1534 1533 1533 1533 1533 1532 1532 1532 1532 1532 1531 1531 1530 1530 1530 1530 1529 1528 1527 1523 1521 1530 1533 1530 1528 1527 1526 1526 1525 1524 1524 1523 1522 1520 1519 1518 1517 1516 1516 1515 1515 1514 1513 1514 1515 1515 1515 1514 1514 1514 1513 1512 1512 1512 1511 1512 1511 1509 1509 1509 1509 1509 1508 1507 1507 1508 1510 1512 1513 1512 1512 1514 1517 1517 1519 1520 1520 1521 1521 1522
1532 1533 1533 1534 1534 1534 1534 1534 1534 1534 1534 1533 1533 1533 1533 1533 1532 1532 1532 1532 1531 1531 1531 1531 1530 1529 1528 1522 1525 1534 1533 1530 1529 1528 1527 1526 1525 1525 1524 1523 1522 1521 1520 1519 1518 1517 1517 1516 1515 1514 1514 1515 1515 1515 1514 1515 1514 1513 1513 1511 1511 1512 1511 1512 1512 1511 1510 1510 1510 1509 1507 1506 1508 1512 1513 1513 1513 1513 1513 1514 1516 1517 1518 1518 1519 1520 1521 1522
1533 1533 1534 1534 1535 1535 1535 1535 1535 1535 1534 1534 1534 1533 1533 1533 1533 1533 1533 1533 1533 1532 1532 1532 1531 1531 1527 1525 1532 1536 1533 1531 1530 1529 1528 1526 1526 1525 1524 1524 1523 1522 1521 1520 1519 1518 1517 1517 1516 1515 1516 1515 1515 1516 1515 1515 1513 1513 1516 1515 1514 1515 1512 1512 1514 1512 1511 1511 1511 1510 1509 1507 1510 1515 1515 1514 1513 1513 1514 1515 1516 1517 1518 1518 1519 1520 1521 1522
1534 1534 1535 1535 1535 1536 1536 1536 1536 1535 1535 1535 1534 1534 1534 1534 1534 1534 1534 1533 1533 1533 1532 1532 1531 1531 1529 1530 1536 1535 1533 1533 1530 1529 1528 1527 1527 1526 1525 1524 1523 1522 1521 1520 1519 1519 1518 1517 1517 1515 1516 1517 1516 1516 1516 1517 1515 1515 1517 1518 1523 1522 1513 1512 1515 1514 1511 1511 1510 1511 1512 1508 1510 1515 1515 1515 1514 1512 1513 1516 1517 1518 1518 1519 1520 1520 1521 1521
1535 1535 1536 1536 1536 1537 1536 1536 1536 1535 1535 1535 1535 1535 1535 1535 1535 1535 1534 1534 1533 1533 1533 1532 1532 1532 1531 1533 1536 1536 1534 1532 1530 1529 1528 1528 1527 1526 1526 1525 1524 1523 1521 1521 1520 1519 1518 1517 1517 1517 1518 1518 1516 1517 1518 1518 1519 1522 1520 1520 1528 1527 1517 1515 1516 1515 1514 1513 1511 1511 1511 1507 1509 1514 1514 1514 1514 1512 1513 1516 1518 1518 1519 1520 1520 1521 1521 1521
1536 1536 1537 1537 1537 1537 1537 1536 1536 1536 1536 1536 1536 1536 1536 1536 1536 1535 1535 1535 1534 1534 1534 1533 1533 1531 1532 1536 1537 1536 1533 1531 1531 1531 1530 1529 1528 1527 1526 1525 1524 1523 1522 1521 1520 1520 1519 1517 1518 1520 1521 1519 1520 1521 1519 1519 1522 1527 1528 1525 1525 1525 1523 1519 1515 1515 1516 1513 1511 1512 1512 1508 1511 1515 1513 1513 1514 1513 1514 1517 1519 1519 1520 1520 1520 1521 1521 1522
1537 1537 1538 1538 1538 1538 1537 1537 1537 1537 1537 1537 1537 1537 1537 1537 1536 1536 1536 1536 1535 1535 1534 1534 1533 1531 1534 1538 1537 1536 1534 1534 1533 1532 1530 1529 1528 1527 1526 1525 1524 1523 1522 1522 1521 1520 1518 1518 1520 1523 1524 1525 1529 1525 1521 1526 1529 1529 1532 1530 1527 1527 1528 1522 1515 1515 1516 1514 1512 1513 1513 1512 1516 1517 1513 1513 1514 1514 1516 1518 1519 1519 1520 1520 1521 1521 1521 1521
1538 1538 1539 1539 1539 1539 1538 1538 1538 1538 1538 1538 1538 1538 1538 1538 1538 1537 1536 1536 1536 1534 1535 1535 1533 1534 1538 1539 1539 1539 1538 1537 1535 1533 1531 1530 1529 1528 1527 1526 1524 1523 1523 1521 1521 1520 1519 1521 1523 1525 1528 1530 1533 1530 1528 1534 1536 1533 1533 1532 1529 1530 1529 1525 1519 1515 1515 1515 1514 1512 1512 1517 1521 1519 1516 1516 1516 1516 1517 1519 1519 1520 1520 1520 1521 1521 1521 1521
1539 1539 1540 1540 1540 1540 1540 1540 1540 1540 1540 1540 1540 1540 1540 1540 1538 1537 1537 1537 1536 1537 1540 1541 1538 1541 1546 1544 1543 1542 1540 1538 1536 1533 1531 1530 1529 1528 1528 1527 1525 1523 1523 1523 1523 1524 1524 1524 1526 1528 1532 1534 1537 1538 1536 1538 1539 1536 1536 1536 1533 1530 1527 1525 1520 1516 1516 1514 1512 1513 1516 1521 1524 1521 1520 1520 1519 1519 1519 1520 1521 1520 1521 1521 1521 1521 1522 1522
1540 1541 1541 1541 1541 1541 1541 1542 1542 1542 1542 1541 1542 1541 1541 1541 1540 1541 1541 1538 1539 1544 1547 1547 1545 1546 1548 1546 1544 1542 1540 1539 1536 1533 1531 1530 1529 1528 1528 1527 1526 1524 1526 1529 1528 1528 1528 1529 1533 1537 1538 1540 1540 1541 1540 1540 1540 1538 1537 1536 1535 1533 1525 1520 1518 1516 1517 1514 1511 1515 1521 1524 1525 1523 1523 1522 1521 1521 1521 1522 1522 1522 1522 1522 1522 1522 1522 1522
1542 1542 1542 1542 1542 1542 1542 1543 1543 1543 1543 1543 1542 1542 1542 1541 1541 1544 1543 1542 1545 1548 1548 1548 1548 1548 1547 1546 1545 1542 1541 1539 1536 1534 1533 1532 1530 1528 1529 1529 1528 1528 1531 1533 1531 1531 1531 1533 1540 1542 1542 1542 1542 1543 1542 1540 1539 1538 1537 1536 1534 1532 1522 1516 1516 1516 1516 1514 1512 1516 1522 1525 1526 1525 1524 1523 1523 1523 1523 1524 1523 1524 1524 1523 1523 1523 1523 1523
1542 1543 1543 1543 1543 1543 1544 1544 1544 1544 1544 1543 1543 1543 1542 1542 1542 1543 1542 1544 1548 1549 1549 1549 1548 1548 1547 1547 1545 1544 1542 1538 1536 1536 1535 1533 1531 1530 1532 1532 1532 1534 1535 1533 1531 1532 1533 1537 1542 1542 1542 1543 1543 1543 1542 1539 1538 1536 1537 1536 1533 1527 1519 1513 1512 1515 1517 1515 1512 1515 1521 1526 1526 1525 1525 1524 1524 1525 1524 1525 1525 1525 1525 1525 1525 1524 1524 1524
1543 1543 1543 1544 1544 1544 1545 1545 1545 1545 1544 1544 1544 1543 1543 1543 1543 1543 1542 1544 1548 1549 1550 1549 1548 1548 1547 1547 1546 1545 1543 1543 1543 1540 1537 1535 1533 1534 1534 1534 1535 1536 1537 1535 1533 1532 1534 1539 1542 1542 1542 1541 1540 1541 1540 1539 1538 1537 1537 1536 1530 1526 1525 1518 1512 1513 1516 1515 1514 1515 1521 1527 1526 1524 1526 1526 1525 1526 1525 1525 1525 1525 1525 1525 1525 1525 1524 1523
1544 1544 1544 1544 1545 1545 1545 1545 1545 1545 1545 1545 1545 1544 1544 1544 1544 1544 1543 1544 1547 1550 1550 1549 1549 1548 1548 1548 1547 1546 1545 1547 1548 1544 1541 1538 1536 1536 1536 1537 1537 1536 1538 1539 1537 1535 1537 1542 1542 1542 1542 1540 1538 1538 1540 1539 1538 1538 1536 1534 1529 1526 1528 1525 1518 1514 1513 1514 1516 1516 1517 1522 1525 1526 1526 1527 1526 1525 1526 1525 1526 1525 1525 1526 1526 1525 1525 1523
1545 1545 1545 1545 1545 1546 1546 1546 1546 1546 1545 1545 1545 1545 1544 1544 1544 1544 1544 1546 1549 1550 1550 1550 1550 1550 1550 1550 1548 1548 1547 1548 1550 1548 1545 1541 1538 1538 1538 1539 1539 1538 1539 1542 1540 1538 1540 1543 1542 1542 1541 1541 1540 1539 1542 1542 1541 1539 1533 1530 1530 1529 1529 1526 1521 1518 1516 1515 1514 1515 1516 1515 1521 1527 1525 1525 1526 1525 1526 1525 1526 1526 1526 1526 1526 1525 1524 1523
1546 1545 1546 1546 1546 1546 1546 1546 1546 1546 1545 1545 1545 1545 1544 1544 1545 1544 1545 1549 1553 1554 1552 1551 1552 1553 1552 1552 1550 1548 1548 1549 1551 1552 1547 1543 1542 1540 1541 1542 1542 1541 1543 1543 1542 1541 1543 1544 1544 1543 1542 1541 1541 1542 1543 1544 1545 1539 1531 1531 1533 1532 1530 1523 1520 1523 1523 1518 1512 1514 1519 1517 1519 1524 1522 1523 1525 1524 1526 1526 1526 1526 1526 1526 1526 1525 1524 1522
1546 1546 1546 1546 1546 1546 1546 1546 1546 1546 1545 1545 1545 1544 1544 1544 1544 1544 1546 1553 1558 1557 1556 1555 1555 1556 1555 1556 1552 1549 1553 1553 1551 1552 1549 1546 1544 1542 1543 1546 1546 1545 1546 1544 1542 1544 1546 1544 1544 1545 1543 1541 1542 1544 1544 1545 1545 1537 1530 1533 1534 1530 1528 1522 1521 1525 1524 1521 1515 1512 1516 1517 1513 1514 1517 1521 1524 1525 1526 1527 1526 1526 1526 1526 1526 1525 1523 1521
1546 1546 1546 1546 1546 1546 1546 1546 1545 1546 1545 1545 1545 1544 1545 1544 1545 1545 1547 1559 1565 1561 1560 1559 1558 1559 1558 1558 1556 1554 1559 1557 1552 1553 1552 1549 1546 1543 1545 1549 1550 1549 1549 1547 1545 1546 1547 1545 1546 1546 1544 1543 1545 1546 1545 1545 1544 1536 1531 1533 1533 1529 1526 1522 1522 1525 1525 1524 1518 1511 1515 1517 1509 1510 1519 1521 1523 1525 1526 1527 1527 1526 1527 1526 1525 1524 1522 1520
1546 1547 1546 1546 1546 1546 1546 1545 1545 1545 1545 1545 1544 1544 1545 1544 1545 1546 1550 1562 1568 1563 1563 1562 1560 1561 1560 1559 1558 1558 1559 1558 1557 1557 1554 1552 1548 1546 1548 1550 1551 1550 1549 1549 1547 1547 1548 1547 1548 1547 1546 1547 1547 1545 1544 1544 1542 1536 1533 1531 1528 1526 1524 1524 1525 1524 1523 1523 1519 1514 1517 1520 1511 1510 1520 1523 1522 1525 1527 1528 1528 1527 1527 1526 1524 1523 1521 1519
1546 1546 1546 1546 1545 1545 1545 1544 1544 1544 1544 1544 1544 1545 1545 1544 1546 1550 1557 1566 1568 1566 1565 1563 1563 1565 1563 1561 1558 1559 1560 1560 1560 1558 1554 1554 1552 1549 1550 1550 1550 1550 1550 1549 1548 1548 1548 1547 1548 1548 1548 1549 1547 1545 1542 1543 1542 1538 1536 1531 1524 1522 1522 1524 1527 1524 1522 1521 1519 1517 1518 1524 1518 1508 1515 1524 1523 1525 1529 1530 1529 1528 1527 1525 1523 1521 1519 1517
1546 1545 1545 1545 1544 1544 1544 1543 1544 1544 1544 1544 1545 1545 1544 1547 1551 1556 1565 1570 1569 1567 1566 1566 1568 1569 1568 1567 1564 1562 1562 1561 1561 1559 1558 1559 1557 1554 1551 1553 1554 1550 1548 1550 1549 1548 1546 1546 1547 1548 1549 1548 1545 1543 1541 1542 1542 1540 1539 1535 1526 1523 1523 1523 1524 1528 1531 1526 1520 1517 1517 1526 1521 1510 1518 1528 1527 1528 1530 1531 1529 1527 1525 1523 1521 1519 1517 1515
1545 1545 1544 1544 1543 1543 1542 1543 1543 1543 1544 1544 1544 1545 1545 1549 1558 1567 1573 1571 1569 1571 1572 1572 1572 1571 1571 1572 1570 1569 1567 1564 1564 1564 1566 1565 1564 1564 1563 1568 1568 1556 1552 1557 1557 1551 1546 1546 1549 1548 1548 1548 1545 1542 1541 1540 1540 1541 1541 1541 1540 1538 1537 1535 1531 1532 1534 1526 1518 1517 1521 1524 1516 1512 1523 1530 1528 1529 1529 1528 1527 1525 1523 1521 1519 1518 1515 1513
1545 1544 1543 1543 1542 1542 1542 1542 1543 1543 1544 1544 1544 1545 1546 1553 1567 1579 1579 1572 1572 1576 1577 1576 1575 1574 1574 1571 1570 1572 1570 1568 1567 1567 1569 1568 1569 1572 1574 1578 1577 1568 1565 1568 1567 1560 1550 1546 1549 1548 1547 1549 1549 1548 1549 1546 1544 1547 1546 1548 1554 1555 1554 1552 1543 1536 1534 1526 1516 1516 1523 1522 1512 1513 1525 1527 1526 1528 1526 1525 1524 1522 1521 1519 1517 1515 1513 1510
1545 1544 1544 1543 1543 1543 1543 1542 1543 1543 1544 1544 1544 1545 1548 1560 1575 1582 1579 1576 1578 1579 1578 1579 1576 1574 1573 1572 1573 1575 1571 1570 1571 1570 1569 1570 1572 1576 1578 1578 1579 1577 1575 1573 1573 1573 1562 1552 1549 1550 1551 1551 1551 1553 1555 1551 1549 1551 1550 1551 1556 1558 1560 1559 1548 1542 1540 1532 1521 1519 1523 1518 1511 1517 1525 1524 1524 1525 1523 1523 1522 1520 1519 1517 1516 1514 1510 1506
1546 1545 1544 1544 1543 1543 1543 1543 1543 1543 1544 1544 1546 1549 1556 1569 1580 1581 1577 1579 1581 1580 1579 1580 1577 1572 1571 1574 1577 1577 1573 1571 1572 1572 1572 1574 1577 1579 1581 1582 1581 1581 1578 1573 1576 1578 1570 1560 1553 1552 1554 1553 1552 1552 1552 1550 1550 1550 1549 1553 1557 1555 1554 1555 1550 1545 1541 1535 1527 1522 1519 1514 1514 1521 1523 1522 1523 1522 1522 1522 1520 1520 1518 1516 1514 1511 1507 1503
1547 1546 1545 1544 1544 1543 1543 1544 1544 1544 1545 1543 1547 1559 1570 1576 1580 1580 1580 1581 1582 1581 1579 1577 1577 1574 1572 1574 1575 1576 1576 1573 1572 1572 1573 1578 1582 1582 1584 1584 1584 1584 1580 1578 1581 1581 1573 1561 1553 1553 1553 1552 1554 1552 1551 1552 1551 1550 1552 1555 1555 1551 1552 1556 1553 1544 1540 1538 1528 1520 1516 1513 1515 1522 1523 1524 1524 1521 1521 1520 1518 1518 1515 1513 1511 1507 1504 1500
1547 1547 1545 1545 1544 1543 1544 1544 1543 1544 1545 1544 1551 1568 1580 1581 1581 1582 1583 1582 1582 1584 1580 1575 1576 1578 1577 1575 1574 1575 1575 1573 1573 1572 1573 1579 1581 1581 1585 1585 1585 1585 1584 1583 1583 1585 1581 1565 1554 1557 1555 1552 1554 1552 1551 1553 1552 1554 1558 1556 1552 1551 1552 1558 1561 1555 1550 1542 1525 1517 1520 1518 1515 1520 1525 1526 1524 1520 1519 1518 1516 1516 1514 1511 1509 1506 1502 1498
1548 1547 1546 1545 1545 1545 1544 1544 1545 1545 1544 1549 1564 1577 1582 1582 1582 1583 1583 1582 1583 1583 1580 1576 1578 1581 1581 1579 1577 1579 1577 1573 1574 1577 1577 1579 1579 1581 1585 1585 1584 1585 1585 1584 1582 1585 1587 1571 1556 1559 1559 1553 1553 1553 1551 1552 1553 1555 1557 1555 1556 1557 1557 1564 1572 1567 1557 1547 1528 1518 1521 1522 1517 1520 1525 1525 1523 1519 1516 1515 1515 1514 1512 1510 1507 1503 1500 1496
1548 1548 1547 1547 1546 1545 1545 1545 1546 1545 1544 1556 1573 1579 1580 1583 1583 1583 1583 1583 1583 1582 1579 1580 1582 1581 1583 1583 1580 1582 1583 1579 1580 1581 1579 1580 1580 1582 1586 1585 1585 1585 1584 1585 1584 1584 1586 1578 1563 1558 1560 1556 1553 1553 1554 1554 1555 1555 1555 1556 1558 1561 1566 1573 1575 1567 1559 1554 1540 1523 1519 1522 1521 1520 1523 1524 1520 1517 1515 1514 1514 1512 1510 1508 1504 1500 1497 1494
1548 1548 1548 1549 1547 1546 1547 1546 1546 1548 1552 1566 1577 1579 1581 1583 1583 1583 1583 1582 1582 1581 1580 1582 1584 1581 1582 1584 1584 1585 1585 1584 1585 1583 1582 1584 1583 1582 1586 1587 1585 1585 1584 1584 1585 1584 1585 1584 1571 1557 1558 1559 1556 1555 1555 1556 1558 1558 1558 1560 1562 1564 1566 1567 1565 1564 1563 1559 1551 1540 1530 1523 1521 1521 1522 1522 1519 1518 1517 1515 1513 1510 1508 1506 1502 1499 1495 1492
1548 1548 1549 1549 1548 1548 1547 1547 1552 1559 1566 1574 1579 1580 1582 1582 1582 1583 1583 1582 1582 1582 1581 1583 1584 1583 1583 1583 1585 1587 1586 1586 1586 1585 1585 1586 1584 1582 1585 1587 1585 1585 1584 1583 1585 1585 1585 1586 1580 1568 1563 1559 1555 1556 1555 1556 1559 1560 1560 1563 1566 1569 1569 1567 1564 1561 1563 1562 1558 1557 1546 1526 1519 1521 1522 1521 1520 1519 1518 1516 1512 1509 1506 1503 1499 1497 1494 1490
1548 1550 1551 1550 1549 1549 1548 1554 1564 1568 1572 1576 1578 1580 1582 1581 1582 1583 1582 1583 1583 1582 1582 1583 1584 1585 1585 1584 1585 1587 1587 1585 1585 1585 1586 1586 1585 1584 1585 1586 1586 1585 1584 1583 1585 1586 1585 1587 1585 1577 1568 1559 1555 1556 1557 1557 1557 1558 1561 1564 1568 1572 1575 1578 1573 1562 1564 1566 1559 1556 1548 1528 1520 1521 1521 1521 1521 1519 1518 1517 1512 1507 1504 1500 1496 1494 1492 1489
1549 1551 1552 1551 1551 1550 1550 1561 1572 1574 1576 1580 1580 1581 1582 1582 1582 1583 1582 1583 1582 1582 1582 1583 1584 1584 1585 1585 1586 1586 1586 1585 1585 1585 1586 1587 1587 1586 1586 1586 1585 1585 1585 1584 1584 1584 1584 1586 1583 1571 1561 1555 1554 1557 1558 1557 1557 1559 1562 1566 1571 1575 1576 1577 1575 1569 1571 1569 1561 1557 1546 1526 1518 1521 1522 1522 1522 1520 1520 1517 1512 1506 1501 1498 1495 1492 1489 1486
1551 1552 1553 1552 1552 1551 1552 1561 1571 1577 1580 1581 1581 1582 1582 1582 1583 1582 1583 1583 1582 1583 1582 1583 1585 1584 1584 1586 1586 1586 1585 1582 1583 1585 1587 1588 1587 1585 1586 1586 1585 1585 1586 1585 1586 1585 1582 1584 1584 1577 1569 1561 1556 1558 1558 1556 1558 1561 1564 1568 1573 1575 1576 1575 1574 1575 1573 1566 1562 1561 1544 1522 1516 1520 1522 1522 1522 1521 1519 1515 1511 1505 1500 1497 1494 1490 1487 1485
1552 1553 1554 1553 1552 1552 1555 1561 1566 1573 1579 1580 1580 1583 1583 1582 1583 1583 1583 1583 1583 1584 1583 1583 1585 1584 1586 1586 1585 1586 1587 1583 1583 1586 1588 1588 1587 1586 1586 1586 1586 1586 1586 1586 1587 1586 1585 1587 1588 1587 1587 1583 1575 1570 1564 1559 1561 1562 1563 1570 1575 1575 1577 1575 1572 1575 1572 1562 1559 1560 1544 1522 1516 1519 1521 1521 1521 1519 1515 1512 1508 1504 1500 1497 1492 1488 1486 1484
1552 1553 1556 1556 1555 1555 1560 1565 1565 1569 1575 1577 1579 1584 1584 1583 1584 1584 1583 1584 1583 1584 1583 1584 1585 1584 1585 1585 1584 1585 1587 1586 1586 1586 1587 1587 1586 1586 1586 1585 1586 1586 1586 1587 1587 1586 1589 1591 1588 1586 1588 1587 1581 1574 1568 1566 1569 1567 1564 1570 1575 1576 1577 1575 1572 1574 1570 1560 1553 1551 1543 1527 1519 1520 1521 1520 1520 1517 1512 1508 1505 1501 1498 1495 1491 1488 1486 1484
1552 1556 1559 1560 1560 1562 1565 1569 1569 1569 1573 1575 1577 1583 1584 1583 1584 1584 1584 1584 1584 1584 1584 1584 1585 1584 1584 1585 1584 1584 1586 1588 1588 1586 1587 1588 1587 1586 1586 1585 1587 1586 1586 1588 1587 1588 1590 1587 1586 1587 1584 1580 1577 1573 1570 1571 1574 1570 1567 1571 1575 1575 1575 1575 1573 1570 1566 1561 1550 1540 1538 1535 1526 1523 1523 1521 1520 1516 1511 1508 1504 1501 1498 1493 1490 1488 1485 1482
1553 1558 1562 1561 1562 1566 1569 1569 1571 1572 1574 1576 1579 1583 1583 1583 1584 1583 1583 1584 1584 1584 1584 1584 1585 1586 1586 1585 1584 1583 1584 1585 1585 1585 1588 1589 1589 1587 1585 1585 1587 1586 1587 1588 1587 1589 1591 1587 1587 1588 1583 1580 1579 1575 1572 1573 1573 1570 1570 1572 1574 1575 1573 1571 1570 1565 1563 1564 1552 1536 1536 1538 1530 1525 1525 1525 1522 1518 1513 1509 1506 1502 1498 1493 1490 1487 1483 1480
1554 1558 1562 1562 1563 1568 1570 1571 1572 1573 1574 1577 1580 1583 1583 1582 1583 1584 1585 1585 1584 1585 1583 1582 1584 1586 1587 1587 1585 1584 1585 1582 1582 1586 1588 1589 1589 1588 1585 1585 1587 1587 1587 1588 1588 1590 1590 1586 1588 1590 1584 1578 1576 1572 1571 1571 1569 1568 1572 1574 1573 1573 1571 1568 1565 1561 1559 1558 1551 1541 1540 1539 1533 1530 1528 1525 1523 1520 1514 1509 1505 1500 1496 1492 1489 1486 1482 1479
1553 1555 1558 1561 1565 1570 1572 1573 1573 1573 1575 1577 1578 1581 1583 1582 1582 1584 1586 1585 1583 1584 1584 1582 1584 1586 1586 1587 1585 1585 1586 1585 1584 1587 1589 1589 1589 1589 1588 1587 1587 1588 1587 1588 1590 1591 1588 1585 1589 1591 1585 1575 1569 1568 1568 1567 1567 1569 1573 1573 1572 1569 1567 1565 1561 1557 1555 1551 1547 1546 1545 1539 1535 1532 1528 1524 1522 1518 1512 1508 1503 1499 1496 1493 1489 1485 1482 1480
1552 1554 1555 1557 1565 1573 1573 1573 1574 1573 1574 1577 1577 1580 1583 1582 1582 1583 1585 1586 1584 1584 1584 1584 1584 1586 1586 1587 1586 1585 1587 1588 1587 1587 1588 1588 1588 1588 1588 1588 1589 1589 1588 1589 1590 1590 1589 1589 1589 1591 1586 1572 1564 1565 1566 1564 1566 1569 1571 1572 1571 1569 1565 1562 1559 1556 1553 1549 1547 1551 1551 1542 1533 1529 1526 1522 1519 1516 1513 1508 1503 1500 1497 1494 1489 1486 1483 1480
1552 1555 1555 1555 1564 1574 1574 1574 1575 1572 1573 1577 1579 1580 1581 1581 1582 1583 1582 1585 1586 1584 1585 1585 1584 1585 1585 1585 1586 1586 1586 1587 1587 1587 1587 1588 1588 1588 1588 1588 1589 1589 1589 1590 1591 1592 1593 1591 1589 1592 1586 1568 1561 1568 1568 1562 1559 1563 1569 1572 1570 1568 1565 1560 1555 1553 1552 1552 1554 1555 1551 1541 1533 1530 1525 1520 1517 1516 1513 1509 1504 1501 1498 1494 1492 1489 1484 1481